Change the Weather History Date:

Tuesday, October 11, 2011

  Actual Average Record
Temperature  
Mean Temperature 59 °F 57 °F  
Max Temperature 70 °F 69 °F 95 °F (1991)
Min Temperature 48 °F 46 °F 33 °F (2008)
Degree Days  
Heating Degree Days 6 8  
Month to date heating degree days 78 71  
Since 1 July heating degree days 115 160  
Cooling Degree Days 0 0  
Month to date cooling degree days 0 2  
Year to date cooling degree days 446 478  
Growing Degree Days 10 (Base 50)    
Moisture  
Dew Point 48 °F    
Average Humidity 66    
Maximum Humidity 86    
Minimum Humidity 45    
Precipitation  
Precipitation 0.01 in 0.07 in 0.91 in (1962)
Month to date precipitation 1.49 0.63  
Year to date precipitation 23.44 21.24  
Sea Level Pressure  
Sea Level Pressure 30.04 in    
Wind  
Wind Speed 3 mph (SW)    
Max Wind Speed 14 mph    
Max Gust Speed 21 mph    
Visibility 10 miles    
Events      
T = Trace of Precipitation, MM = Missing Value Source: NWS Daily Summary

Daily Weather History Graph

Daily Weather History Graph

Search for Another Location

Airport or City:

Trip Planner

Search our weather history database for the weather conditions in past years. The results will help you decide how hot, cold, wet, or windy it might be!

Date:

Astronomy

Oct. 11, 2011 Rise Set
Actual Time 7:22 AM PDT 6:37 PM PDT
Civil Twilight 6:53 AM PDT 7:05 PM PDT
Nautical Twilight 6:20 AM PDT 7:38 PM PDT
Astronomical Twilight 5:47 AM PDT 8:11 PM PDT
Moon 6:09 PM PDT (10/11) 7:06 AM PDT (10/11)
Length of Visible Light 12h 12m
Length of Day
11h 15m
Full, 100% of the Moon is Illuminated
Oct 11
Full
Oct 11
Full
Oct 19
Last Quarter
Oct 26
New
Nov 2
First Quarter

Hourly Weather History & Observations

Time (PDT) Temp. Dew Point Humidity Pressure Visibility Wind Dir Wind Speed Gust Speed Precip Events Conditions
12:53 AM 57.0 °F 54.0 °F 89% 29.83 in 10.0 mi Calm Calm - N/A   Overcast
1:53 AM 57.0 °F 54.0 °F 89% 29.84 in 10.0 mi Calm Calm - N/A   Overcast
3:53 AM 57.9 °F 51.1 °F 78% 29.88 in 10.0 mi Variable 3.5 mph - N/A   Overcast
4:53 AM 59.0 °F 48.9 °F 69% 29.89 in 10.0 mi South 5.8 mph - N/A   Overcast
5:53 AM 59.0 °F 48.0 °F 67% 29.90 in 10.0 mi South 5.8 mph - N/A   Overcast
7:53 AM 57.9 °F 50.0 °F 75% 29.94 in 10.0 mi Calm Calm - N/A   Overcast
8:53 AM 59.0 °F 48.9 °F 69% 29.99 in 10.0 mi Calm Calm - 0.00 in   Overcast
9:53 AM 57.9 °F 48.9 °F 72% 30.01 in 10.0 mi NW 3.5 mph - 0.00 in   Overcast
10:53 AM 57.9 °F 52.0 °F 81% 30.05 in 10.0 mi Calm Calm - 0.01 in   Overcast
11:53 AM 63.0 °F 52.0 °F 67% 30.06 in 10.0 mi ESE 3.5 mph - N/A   Scattered Clouds
12:53 PM 63.0 °F 50.0 °F 63% 30.07 in 10.0 mi WNW 4.6 mph - N/A   Overcast
1:53 PM 66.9 °F 46.9 °F 49% 30.06 in 10.0 mi WSW 6.9 mph - 0.01 in   Partly Cloudy
2:53 PM 68.0 °F 46.9 °F 47% 30.08 in 10.0 mi WSW 8.1 mph - N/A   Mostly Cloudy
3:53 PM 66.0 °F 46.9 °F 50% 30.10 in 10.0 mi Variable 4.6 mph - N/A   Partly Cloudy
4:53 PM 66.0 °F 46.9 °F 50% 30.11 in 10.0 mi Variable 3.5 mph - N/A   Clear
5:53 PM 64.0 °F 44.1 °F 48% 30.12 in 10.0 mi West 4.6 mph - N/A   Clear
6:53 PM 61.0 °F 43.0 °F 52% 30.13 in 10.0 mi Variable 3.5 mph - N/A   Scattered Clouds
7:53 PM 57.0 °F 45.0 °F 64% 30.15 in 10.0 mi Calm Calm - N/A   Scattered Clouds
8:53 PM 55.0 °F 46.0 °F 72% 30.16 in 10.0 mi Calm Calm - N/A   Scattered Clouds
9:53 PM 53.1 °F 45.0 °F 74% 30.18 in 10.0 mi Calm Calm - N/A   Clear
10:53 PM 51.1 °F 45.0 °F 80% 30.20 in 10.0 mi Calm Calm - N/A   Partly Cloudy